• In Hungary
  • List of Countries
  • For 7 days
  • Water Temperature
  • Satellite Maps
  • Weather Map
  • News
  • Weather Widgets
  • user-avatar
    Login

    Hourly Weather Atikovo

    Today, 27 May, Sunday

    Time Temperature Precipitation Wind Pressure Humidity
    00:00 +2°C° 0 mm 2 mps 739 mmHg 67%
    01:00 +2°C° 0 mm 2 mps 740 mmHg 69%
    02:00 +1°C° 0 mm 2 mps 740 mmHg 70%
    03:00 +1°C° 0 mm 2 mps 740 mmHg 71%
    04:00 +2°C° 0 mm 1 mps 740 mmHg 72%
    05:00 +3°C° 0 mm 2 mps 741 mmHg 64%
    06:00 +5°C° 0 mm 2 mps 741 mmHg 56%
    07:00 +7°C° 0 mm 3 mps 741 mmHg 48%
    08:00 +9°C° 0 mm 3 mps 741 mmHg 45%
    09:00 +10°C° 0 mm 4 mps 741 mmHg 42%
    10:00 +12°C° 0 mm 5 mps 741 mmHg 40%
    11:00 +13°C° 0 mm 5 mps 740 mmHg 41%
    12:00 +14°C° 0 mm 5 mps 740 mmHg 41%
    13:00 +15°C° 0 mm 5 mps 739 mmHg 42%
    14:00 +16°C° 0 mm 5 mps 739 mmHg 44%
    15:00 +16°C° 0 mm 5 mps 738 mmHg 46%
    16:00 +16°C° 0 mm 6 mps 738 mmHg 48%
    17:00 +15°C° 0 mm 5 mps 737 mmHg 54%
    18:00 +14°C° 0 mm 5 mps 737 mmHg 59%
    19:00 +14°C° 0 mm 4 mps 736 mmHg 64%
    20:00 +13°C° 0 mm 4 mps 736 mmHg 68%
    21:00 +11°C° 0 mm 4 mps 736 mmHg 73%
    22:00 +9°C° 0 mm 5 mps 735 mmHg 77%
    23:00 +9°C° 0 mm 5 mps 734 mmHg 78%

    Tomorrow, 28 May, Monday

    Time Temperature Precipitation Wind Pressure Humidity
    00:00 +9°C° 0 mm 5 mps 734 mmHg 78%
    01:00 +8°C° 0 mm 5 mps 733 mmHg 78%
    02:00 +8°C° 0 mm 5 mps 732 mmHg 79%
    03:00 +8°C° 0 mm 6 mps 732 mmHg 80%
    04:00 +8°C° 0 mm 6 mps 731 mmHg 80%
    05:00 +8°C° 0.4 mm 7 mps 730 mmHg 81%
    06:00 +8°C° 0.4 mm 7 mps 729 mmHg 81%
    07:00 +9°C° 0.4 mm 8 mps 728 mmHg 81%
    08:00 +8°C° 1.6 mm 7 mps 728 mmHg 85%
    09:00 +8°C° 1.6 mm 7 mps 728 mmHg 89%
    10:00 +8°C° 1.6 mm 6 mps 728 mmHg 93%
    11:00 +8°C° 0.4 mm 6 mps 728 mmHg 90%
    12:00 +8°C° 0.4 mm 6 mps 729 mmHg 86%
    13:00 +8°C° 0.4 mm 6 mps 729 mmHg 83%
    14:00 +9°C° 0.3 mm 6 mps 729 mmHg 78%
    15:00 +9°C° 0.3 mm 6 mps 730 mmHg 72%
    16:00 +9°C° 0.3 mm 6 mps 730 mmHg 67%
    17:00 +9°C° 0.1 mm 6 mps 731 mmHg 68%
    18:00 +8°C° 0.1 mm 5 mps 731 mmHg 69%
    19:00 +7°C° 0.1 mm 4 mps 731 mmHg 70%
    20:00 +6°C° 0 mm 4 mps 732 mmHg 76%
    21:00 +4°C° 0 mm 3 mps 732 mmHg 82%
    22:00 +3°C° 0 mm 3 mps 733 mmHg 88%
    23:00 +3°C° 0 mm 2 mps 733 mmHg 89%

    Day after tomorrow, 29 May, Tuesday

    Time Temperature Precipitation Wind Pressure Humidity
    00:00 +2°C° 0 mm 2 mps 733 mmHg 90%
    01:00 +2°C° 0 mm 2 mps 733 mmHg 91%
    02:00 +1°C° 0 mm 2 mps 733 mmHg 92%
    03:00 +1°C° 0 mm 2 mps 734 mmHg 93%
    04:00 -1°C° 0 mm 2 mps 734 mmHg 94%
    05:00 +1°C° 0 mm 3 mps 734 mmHg 84%
    06:00 +3°C° 0 mm 3 mps 734 mmHg 74%
    07:00 +5°C° 0 mm 4 mps 734 mmHg 64%
    08:00 +5°C° 0 mm 5 mps 734 mmHg 59%
    09:00 +6°C° 0 mm 5 mps 734 mmHg 54%
    10:00 +7°C° 0 mm 5 mps 734 mmHg 48%
    11:00 +8°C° 0.1 mm 5 mps 734 mmHg 48%
    12:00 +8°C° 0.1 mm 5 mps 734 mmHg 48%
    13:00 +8°C° 0.1 mm 5 mps 733 mmHg 48%
    14:00 +8°C° 0 mm 5 mps 733 mmHg 49%
    15:00 +8°C° 0 mm 5 mps 733 mmHg 51%
    16:00 +8°C° 0 mm 5 mps 733 mmHg 53%
    17:00 +7°C° 0.1 mm 4 mps 733 mmHg 63%
    18:00 +7°C° 0.1 mm 3 mps 733 mmHg 72%
    19:00 +7°C° 0.1 mm 2 mps 732 mmHg 82%
    20:00 +6°C° 0.1 mm 2 mps 732 mmHg 87%
    21:00 +5°C° 0.1 mm 2 mps 732 mmHg 92%
    22:00 +5°C° 0.1 mm 1 mps 732 mmHg 97%
    23:00 +5°C° 0 mm 1 mps 732 mmHg 97%

    30 May, Wednesday

    Time Temperature Precipitation Wind Pressure Humidity
    00:00 +5°C° 0 mm 1 mps 732 mmHg 97%
    01:00 +5°C° 0 mm 1 mps 732 mmHg 98%
    02:00 +5°C° 0 mm 1 mps 732 mmHg 98%
    03:00 +5°C° 0 mm 1 mps 732 mmHg 97%
    04:00 +5°C° 0 mm 1 mps 732 mmHg 97%
    05:00 +6°C° 0 mm 1 mps 732 mmHg 94%
    06:00 +6°C° 0 mm 2 mps 732 mmHg 91%
    07:00 +7°C° 0 mm 2 mps 732 mmHg 88%
    08:00 +8°C° 0 mm 2 mps 732 mmHg 85%
    09:00 +9°C° 0 mm 3 mps 732 mmHg 82%
    10:00 +10°C° 0 mm 3 mps 732 mmHg 79%
    11:00 +10°C° 0.2 mm 3 mps 732 mmHg 81%
    12:00 +11°C° 0.2 mm 4 mps 731 mmHg 82%
    13:00 +12°C° 0.2 mm 4 mps 731 mmHg 83%
    14:00 +13°C° 0.3 mm 5 mps 730 mmHg 84%
    15:00 +14°C° 0.3 mm 5 mps 730 mmHg 84%
    16:00 +15°C° 0.3 mm 5 mps 729 mmHg 84%
    17:00 +15°C° 0.3 mm 5 mps 729 mmHg 85%
    18:00 +15°C° 0.3 mm 4 mps 729 mmHg 85%
    19:00 +15°C° 0.3 mm 4 mps 728 mmHg 86%
    20:00 +14°C° 0.1 mm 4 mps 728 mmHg 88%
    21:00 +13°C° 0.1 mm 4 mps 728 mmHg 89%
    22:00 +12°C° 0.1 mm 4 mps 727 mmHg 91%
    23:00 +12°C° 0 mm 5 mps 727 mmHg 91%

    31 May, Thursday

    Time Temperature Precipitation Wind Pressure Humidity
    00:00 +12°C° 0 mm 5 mps 726 mmHg 90%
    01:00 +11°C° 0 mm 6 mps 725 mmHg 90%
    02:00 +11°C° 0 mm 6 mps 725 mmHg 90%
    03:00 +11°C° 0 mm 7 mps 724 mmHg 90%
    04:00 +11°C° 0 mm 8 mps 724 mmHg 90%
    05:00 +11°C° 0.7 mm 7 mps 724 mmHg 91%
    06:00 +11°C° 0.7 mm 7 mps 724 mmHg 92%
    07:00 +12°C° 0.7 mm 7 mps 724 mmHg 93%
    08:00 +12°C° 0.6 mm 7 mps 724 mmHg 92%
    09:00 +12°C° 0.6 mm 7 mps 724 mmHg 92%
    10:00 +12°C° 0.6 mm 7 mps 725 mmHg 91%
    11:00 +14°C° 0.3 mm 7 mps 725 mmHg 81%
    12:00 +16°C° 0.3 mm 8 mps 725 mmHg 71%
    13:00 +17°C° 0.3 mm 8 mps 726 mmHg 61%
    14:00 +17°C° 0.1 mm 8 mps 726 mmHg 60%
    15:00 +16°C° 0.1 mm 8 mps 726 mmHg 59%
    16:00 +16°C° 0.1 mm 7 mps 726 mmHg 58%
    17:00 +15°C° 0 mm 6 mps 727 mmHg 61%
    18:00 +14°C° 0 mm 5 mps 727 mmHg 65%
    19:00 +12°C° 0 mm 5 mps 727 mmHg 68%
    20:00 +11°C° 0 mm 4 mps 728 mmHg 72%
    21:00 +9°C° 0 mm 3 mps 728 mmHg 76%
    22:00 +8°C° 0 mm 2 mps 729 mmHg 80%
    23:00 +8°C° 0.1 mm 2 mps 729 mmHg 81%

    1 June, Friday

    Time Temperature Precipitation Wind Pressure Humidity
    00:00 +7°C° 0.1 mm 2 mps 729 mmHg 82%
    01:00 +8°C° 0.1 mm 1 mps 729 mmHg 84%
    02:00 +7°C° 0.4 mm 1 mps 730 mmHg 86%
    03:00 +7°C° 0.4 mm 1 mps 730 mmHg 89%
    04:00 +6°C° 0.4 mm 0 mps 730 mmHg 92%
    05:00 +7°C° 0.3 mm 1 mps 730 mmHg 89%
    06:00 +8°C° 0.3 mm 1 mps 731 mmHg 87%
    07:00 +8°C° 0.3 mm 1 mps 731 mmHg 85%
    08:00 +9°C° 0.4 mm 1 mps 731 mmHg 83%
    09:00 +9°C° 0.4 mm 1 mps 731 mmHg 80%
    10:00 +9°C° 0.4 mm 2 mps 731 mmHg 78%
    11:00 +10°C° 0.2 mm 2 mps 731 mmHg 76%
    12:00 +10°C° 0.2 mm 2 mps 730 mmHg 74%
    13:00 +12°C° 0.2 mm 2 mps 730 mmHg 72%
    14:00 +13°C° 0 mm 2 mps 730 mmHg 70%
    15:00 +14°C° 0 mm 2 mps 730 mmHg 68%
    16:00 +15°C° 0 mm 2 mps 730 mmHg 66%
    17:00 +13°C° 0.2 mm 3 mps 730 mmHg 70%
    18:00 +12°C° 0.2 mm 3 mps 730 mmHg 75%
    19:00 +11°C° 0.2 mm 3 mps 730 mmHg 79%
    20:00 +10°C° 0 mm 3 mps 730 mmHg 81%
    21:00 +9°C° 0 mm 3 mps 729 mmHg 83%
    22:00 +8°C° 0 mm 3 mps 729 mmHg 84%
    23:00 +8°C° 0 mm 3 mps 729 mmHg 83%
    Show more